Time,TemperatureF,DewpointF,PressureIn,WindDirection,WindDirectionDegrees,WindSpeedMPH,WindSpeedGustMPH,Humidity,HourlyPrecipIn,Conditions,Clouds,dailyrainin,SolarRadiationWatts/m^2,SoftwareType,DateUTC
2013-05-31 00:07:00,71.9,69.0,29.89,SSE,164,0.0,-999.0,91,-99.99,,,0.00,0,weatherlink.com 1.10,2013-05-31 05:07:00,
2013-05-31 00:22:00,71.8,69.0,29.89,SSE,162,0.0,-999.0,91,-99.99,,,0.00,0,weatherlink.com 1.10,2013-05-31 05:22:00,
2013-05-31 00:38:00,71.7,69.0,29.89,SSE,162,0.0,-999.0,92,-99.99,,,0.00,0,weatherlink.com 1.10,2013-05-31 05:38:00,
2013-05-31 00:53:00,71.5,69.0,29.89,SSE,162,0.0,-999.0,92,-99.99,,,0.00,0,weatherlink.com 1.10,2013-05-31 05:53:00,
2013-05-31 01:08:00,71.4,69.0,29.93,SSE,163,0.0,-999.0,93,-99.99,,,0.07,0,weatherlink.com 1.10,2013-05-31 06:08:00,
2013-05-31 01:23:00,70.8,69.0,29.91,South,169,0.0,-999.0,94,-99.99,,,0.14,0,weatherlink.com 1.10,2013-05-31 06:23:00,
2013-05-31 01:38:00,70.1,68.0,29.86,SSE,150,9.0,-999.0,94,-99.99,,,0.17,0,weatherlink.com 1.10,2013-05-31 06:38:00,
2013-05-31 01:53:00,69.8,68.0,29.84,SE,138,7.0,-999.0,95,-99.99,,,0.18,0,weatherlink.com 1.10,2013-05-31 06:53:00,
2013-05-31 02:08:00,69.5,68.0,29.78,SE,140,9.0,-999.0,95,-99.99,,,0.19,0,weatherlink.com 1.10,2013-05-31 07:08:00,
2013-05-31 02:23:00,68.6,67.0,29.83,SSW,194,3.0,-999.0,95,-99.99,,,0.19,0,weatherlink.com 1.10,2013-05-31 07:23:00,
2013-05-31 02:38:00,68.5,67.0,29.85,West,280,0.0,-999.0,95,-99.99,,,0.19,0,weatherlink.com 1.10,2013-05-31 07:38:00,
2013-05-31 02:53:00,68.2,67.0,29.89,West,262,5.0,-999.0,95,-99.99,,,0.19,0,weatherlink.com 1.10,2013-05-31 07:53:00,
2013-05-31 03:08:00,67.6,66.0,29.89,SSE,159,0.0,-999.0,95,-99.99,,,0.19,0,weatherlink.com 1.10,2013-05-31 08:08:00,
2013-05-31 03:23:00,66.5,65.0,29.89,SSE,167,2.0,-999.0,94,-99.99,,,0.19,0,weatherlink.com 1.10,2013-05-31 08:23:00,
2013-05-31 03:38:00,66.1,65.0,29.89,SSE,163,1.0,-999.0,95,-99.99,,,0.19,0,weatherlink.com 1.10,2013-05-31 08:38:00,
2013-05-31 03:53:00,66.1,65.0,29.89,SSE,167,0.0,-999.0,95,-99.99,,,0.19,0,weatherlink.com 1.10,2013-05-31 08:53:00,
2013-05-31 04:08:00,66.3,65.0,29.89,SSE,163,1.0,-999.0,96,-99.99,,,0.19,0,weatherlink.com 1.10,2013-05-31 09:08:00,
2013-05-31 04:23:00,66.6,66.0,29.89,SSE,163,0.0,-999.0,96,-99.99,,,0.19,0,weatherlink.com 1.10,2013-05-31 09:23:00,
2013-05-31 04:38:00,66.9,66.0,29.89,SSE,161,1.0,-999.0,96,-99.99,,,0.19,0,weatherlink.com 1.10,2013-05-31 09:38:00,
2013-05-31 04:53:00,67.3,66.0,29.89,SSE,153,0.0,-999.0,96,-99.99,,,0.19,0,weatherlink.com 1.10,2013-05-31 09:53:00,
2013-05-31 05:08:00,67.5,66.0,29.89,SSE,154,0.0,-999.0,96,-99.99,,,0.19,0,weatherlink.com 1.10,2013-05-31 10:08:00,
2013-05-31 05:23:00,67.6,67.0,29.88,SSE,153,0.0,-999.0,96,-99.99,,,0.19,0,weatherlink.com 1.10,2013-05-31 10:23:00,
2013-05-31 05:38:00,67.6,67.0,29.88,SSE,153,0.0,-999.0,96,-99.99,,,0.19,0,weatherlink.com 1.10,2013-05-31 10:38:00,
2013-05-31 05:53:00,67.6,67.0,29.87,South,171,2.0,-999.0,96,-99.99,,,0.19,0,weatherlink.com 1.10,2013-05-31 10:53:00,
2013-05-31 06:08:00,67.5,66.0,29.87,SSE,162,0.0,-999.0,96,-99.99,,,0.19,0,weatherlink.com 1.10,2013-05-31 11:08:00,
2013-05-31 06:24:00,67.4,66.0,29.87,SE,146,0.0,-999.0,96,-99.99,,,0.19,11,weatherlink.com 1.10,2013-05-31 11:24:00,
2013-05-31 06:39:00,67.4,66.0,29.87,SSE,150,4.0,-999.0,96,-99.99,,,0.19,14,weatherlink.com 1.10,2013-05-31 11:39:00,
2013-05-31 06:54:00,67.5,66.0,29.87,South,172,0.0,-999.0,96,-99.99,,,0.19,18,weatherlink.com 1.10,2013-05-31 11:54:00,
2013-05-31 07:09:00,67.5,66.0,29.87,South,172,0.0,-999.0,96,-99.99,,,0.19,18,weatherlink.com 1.10,2013-05-31 12:09:00,
2013-05-31 07:24:00,67.5,66.0,29.87,South,172,0.0,-999.0,96,-99.99,,,0.19,28,weatherlink.com 1.10,2013-05-31 12:24:00,
2013-05-31 07:39:00,67.6,67.0,29.88,South,171,0.0,-999.0,96,-99.99,,,0.19,39,weatherlink.com 1.10,2013-05-31 12:39:00,
2013-05-31 07:54:00,67.9,67.0,29.88,SSE,166,0.0,-999.0,96,-99.99,,,0.19,51,weatherlink.com 1.10,2013-05-31 12:54:00,
2013-05-31 08:09:00,68.2,67.0,29.89,SSE,166,0.0,-999.0,95,-99.99,,,0.19,102,weatherlink.com 1.10,2013-05-31 13:09:00,
2013-05-31 08:24:00,69.0,68.0,29.89,SSE,166,0.0,-999.0,96,-99.99,,,0.19,244,weatherlink.com 1.10,2013-05-31 13:24:00,
2013-05-31 08:39:00,70.4,69.0,29.89,South,170,0.0,-999.0,95,-99.99,,,0.19,237,weatherlink.com 1.10,2013-05-31 13:39:00,
2013-05-31 08:54:00,71.0,69.0,29.89,South,178,0.0,-999.0,94,-99.99,,,0.19,195,weatherlink.com 1.10,2013-05-31 13:54:00,
2013-05-31 09:09:00,71.9,70.0,29.89,South,183,0.0,-999.0,93,-99.99,,,0.19,192,weatherlink.com 1.10,2013-05-31 14:09:00,
2013-05-31 09:24:00,72.5,70.0,29.89,South,181,0.0,-999.0,92,-99.99,,,0.19,181,weatherlink.com 1.10,2013-05-31 14:24:00,
2013-05-31 09:39:00,73.0,71.0,29.89,South,181,0.0,-999.0,92,-99.99,,,0.19,264,weatherlink.com 1.10,2013-05-31 14:39:00,
2013-05-31 09:54:00,74.1,71.0,29.89,South,184,3.0,-999.0,91,-99.99,,,0.19,225,weatherlink.com 1.10,2013-05-31 14:54:00,
2013-05-31 10:09:00,74.8,72.0,29.89,South,184,0.0,-999.0,90,-99.99,,,0.19,151,weatherlink.com 1.10,2013-05-31 15:09:00,
2013-05-31 10:24:00,74.7,71.0,29.89,South,182,0.0,-999.0,89,-99.99,,,0.19,190,weatherlink.com 1.10,2013-05-31 15:24:00,
2013-05-31 10:39:00,75.4,72.0,29.89,South,183,0.0,-999.0,90,-99.99,,,0.19,141,weatherlink.com 1.10,2013-05-31 15:39:00,
2013-05-31 10:54:00,75.6,72.0,29.89,South,183,0.0,-999.0,88,-99.99,,,0.19,121,weatherlink.com 1.10,2013-05-31 15:54:00,
2013-05-31 11:09:00,75.7,72.0,29.89,South,182,0.0,-999.0,87,-99.99,,,0.19,148,weatherlink.com 1.10,2013-05-31 16:09:00,
2013-05-31 11:24:00,76.2,72.0,29.89,South,173,0.0,-999.0,87,-99.99,,,0.19,148,weatherlink.com 1.10,2013-05-31 16:24:00,
2013-05-31 11:39:00,76.4,72.0,29.89,SSE,167,0.0,-999.0,86,-99.99,,,0.19,146,weatherlink.com 1.10,2013-05-31 16:39:00,
2013-05-31 11:54:00,76.7,72.0,29.89,South,178,0.0,-999.0,85,-99.99,,,0.19,176,weatherlink.com 1.10,2013-05-31 16:54:00,
2013-05-31 12:09:00,77.2,73.0,29.89,South,171,10.0,-999.0,86,-99.99,,,0.19,225,weatherlink.com 1.10,2013-05-31 17:09:00,
2013-05-31 12:24:00,77.6,73.0,29.89,South,169,0.0,-999.0,85,-99.99,,,0.19,207,weatherlink.com 1.10,2013-05-31 17:24:00,
2013-05-31 12:39:00,78.0,73.0,29.88,SSE,158,0.0,-999.0,85,-99.99,,,0.19,281,weatherlink.com 1.10,2013-05-31 17:39:00,
2013-05-31 12:54:00,79.1,74.0,29.88,SE,142,0.0,-999.0,85,-99.99,,,0.19,271,weatherlink.com 1.10,2013-05-31 17:54:00,
2013-05-31 13:09:00,79.7,74.0,29.87,SE,142,0.0,-999.0,83,-99.99,,,0.19,374,weatherlink.com 1.10,2013-05-31 18:09:00,
2013-05-31 13:24:00,80.2,75.0,29.87,SE,144,0.0,-999.0,83,-99.99,,,0.19,554,weatherlink.com 1.10,2013-05-31 18:24:00,
2013-05-31 13:39:00,81.4,75.0,29.86,SE,143,0.0,-999.0,80,-99.99,,,0.19,415,weatherlink.com 1.10,2013-05-31 18:39:00,
2013-05-31 13:54:00,82.2,75.0,29.86,SE,142,0.0,-999.0,79,-99.99,,,0.19,628,weatherlink.com 1.10,2013-05-31 18:54:00,
2013-05-31 14:10:00,82.9,74.0,29.86,South,170,4.0,-999.0,75,-99.99,,,0.19,378,weatherlink.com 1.10,2013-05-31 19:10:00,
2013-05-31 14:25:00,82.4,75.0,29.86,South,171,0.0,-999.0,77,-99.99,,,0.19,260,weatherlink.com 1.10,2013-05-31 19:25:00,
2013-05-31 14:40:00,82.1,75.0,29.86,South,171,0.0,-999.0,79,-99.99,,,0.19,399,weatherlink.com 1.10,2013-05-31 19:40:00,
2013-05-31 14:55:00,83.3,76.0,29.86,South,171,0.0,-999.0,78,-99.99,,,0.19,332,weatherlink.com 1.10,2013-05-31 19:55:00,
2013-05-31 15:10:00,83.8,77.0,29.85,South,171,2.0,-999.0,79,-99.99,,,0.19,281,weatherlink.com 1.10,2013-05-31 20:10:00,
2013-05-31 15:25:00,83.2,76.0,29.85,SSE,167,0.0,-999.0,79,-99.99,,,0.19,330,weatherlink.com 1.10,2013-05-31 20:25:00,
2013-05-31 15:40:00,83.9,76.0,29.85,SSE,167,0.0,-999.0,77,-99.99,,,0.19,401,weatherlink.com 1.10,2013-05-31 20:40:00,
2013-05-31 15:55:00,84.7,76.0,29.85,SSE,161,0.0,-999.0,76,-99.99,,,0.19,332,weatherlink.com 1.10,2013-05-31 20:55:00,
2013-05-31 16:10:00,84.5,76.0,29.84,SSE,160,1.0,-999.0,75,-99.99,,,0.19,311,weatherlink.com 1.10,2013-05-31 21:10:00,
2013-05-31 16:25:00,84.5,76.0,29.84,SSE,167,0.0,-999.0,76,-99.99,,,0.19,320,weatherlink.com 1.10,2013-05-31 21:25:00,
2013-05-31 16:40:00,85.5,77.0,29.84,SSE,167,0.0,-999.0,75,-99.99,,,0.19,550,weatherlink.com 1.10,2013-05-31 21:40:00,
2013-05-31 16:55:00,86.5,77.0,29.83,South,178,0.0,-999.0,72,-99.99,,,0.19,452,weatherlink.com 1.10,2013-05-31 21:55:00,
2013-05-31 17:10:00,86.4,76.0,29.81,South,173,2.0,-999.0,71,-99.99,,,0.19,501,weatherlink.com 1.10,2013-05-31 22:10:00,
2013-05-31 17:25:00,86.1,75.0,29.81,SSE,164,0.0,-999.0,70,-99.99,,,0.19,450,weatherlink.com 1.10,2013-05-31 22:25:00,
2013-05-31 17:40:00,86.5,75.0,29.81,SSE,163,0.0,-999.0,69,-99.99,,,0.19,480,weatherlink.com 1.10,2013-05-31 22:40:00,
2013-05-31 17:55:00,85.6,75.0,29.81,SSE,151,0.0,-999.0,70,-99.99,,,0.19,366,weatherlink.com 1.10,2013-05-31 22:55:00,
2013-05-31 18:10:00,85.1,75.0,29.81,SSE,150,6.0,-999.0,71,-99.99,,,0.19,93,weatherlink.com 1.10,2013-05-31 23:10:00,
2013-05-31 18:25:00,83.8,74.0,29.80,South,175,0.0,-999.0,73,-99.99,,,0.19,127,weatherlink.com 1.10,2013-05-31 23:25:00,
2013-05-31 18:40:00,83.4,75.0,29.77,SSE,168,0.0,-999.0,75,-99.99,,,0.19,91,weatherlink.com 1.10,2013-05-31 23:40:00,
2013-05-31 18:55:00,83.0,75.0,29.76,SSE,160,0.0,-999.0,76,-99.99,,,0.19,56,weatherlink.com 1.10,2013-05-31 23:55:00,
2013-05-31 19:10:00,82.3,74.0,29.76,SSE,166,0.0,-999.0,77,-99.99,,,0.19,51,weatherlink.com 1.10,2013-06-01 00:10:00,
2013-05-31 19:25:00,81.7,74.0,29.74,SSE,164,0.0,-999.0,78,-99.99,,,0.19,40,weatherlink.com 1.10,2013-06-01 00:25:00,
2013-05-31 19:40:00,80.9,74.0,29.75,SSE,161,0.0,-999.0,79,-99.99,,,0.19,11,weatherlink.com 1.10,2013-06-01 00:40:00,
2013-05-31 19:55:00,80.3,74.0,29.77,SSE,161,5.0,-999.0,80,-99.99,,,0.19,5,weatherlink.com 1.10,2013-06-01 00:55:00,
2013-05-31 20:10:00,79.8,74.0,29.79,South,177,0.0,-999.0,81,-99.99,,,0.19,0,weatherlink.com 1.10,2013-06-01 01:10:00,
2013-05-31 20:25:00,79.5,73.0,29.81,SSE,167,0.0,-999.0,81,-99.99,,,0.19,0,weatherlink.com 1.10,2013-06-01 01:25:00,
2013-05-31 20:40:00,79.1,73.0,29.79,SSE,166,2.0,-999.0,82,-99.99,,,0.19,0,weatherlink.com 1.10,2013-06-01 01:40:00,
2013-05-31 20:55:00,78.8,73.0,29.81,SSE,166,0.0,-999.0,83,-99.99,,,0.19,0,weatherlink.com 1.10,2013-06-01 01:55:00,
2013-05-31 21:10:00,78.5,73.0,29.81,SSE,166,0.0,-999.0,84,-99.99,,,0.19,0,weatherlink.com 1.10,2013-06-01 02:10:00,
2013-05-31 21:25:00,78.4,74.0,29.82,SSE,166,1.0,-999.0,85,-99.99,,,0.19,0,weatherlink.com 1.10,2013-06-01 02:25:00,
2013-05-31 21:40:00,78.1,74.0,29.82,SSE,166,2.0,-999.0,86,-99.99,,,0.19,0,weatherlink.com 1.10,2013-06-01 02:40:00,
2013-05-31 21:55:00,77.9,74.0,29.83,SSE,166,1.0,-999.0,87,-99.99,,,0.19,0,weatherlink.com 1.10,2013-06-01 02:55:00,
2013-05-31 22:10:00,77.7,74.0,29.83,SSE,166,0.0,-999.0,88,-99.99,,,0.19,0,weatherlink.com 1.10,2013-06-01 03:10:00,
2013-05-31 22:25:00,77.3,74.0,29.83,SSE,166,0.0,-999.0,88,-99.99,,,0.19,0,weatherlink.com 1.10,2013-06-01 03:25:00,
2013-05-31 22:40:00,77.1,74.0,29.83,SSE,166,0.0,-999.0,89,-99.99,,,0.19,0,weatherlink.com 1.10,2013-06-01 03:40:00,
2013-05-31 22:55:00,76.9,74.0,29.83,SSE,165,0.0,-999.0,90,-99.99,,,0.19,0,weatherlink.com 1.10,2013-06-01 03:55:00,
2013-05-31 23:10:00,76.6,74.0,29.84,SSE,161,0.0,-999.0,90,-99.99,,,0.19,0,weatherlink.com 1.10,2013-06-01 04:10:00,
2013-05-31 23:25:00,76.5,74.0,29.85,SSE,161,0.0,-999.0,91,-99.99,,,0.19,0,weatherlink.com 1.10,2013-06-01 04:25:00,
2013-05-31 23:40:00,76.3,74.0,29.86,SSE,161,0.0,-999.0,91,-99.99,,,0.19,0,weatherlink.com 1.10,2013-06-01 04:40:00,
2013-05-31 23:55:00,76.5,74.0,29.85,SSE,161,0.0,-999.0,91,-99.99,,,0.19,0,weatherlink.com 1.10,2013-06-01 04:55:00,